Location: Bühlhof
(48.7849°N, 8.6361°E)
Time: 07:15:53
(UTC+00:00)

Cosmos 1603 - Pass Details

Date: 19 January 2026
Orbit: 831 x 857 km, 71.0° (Epoch: 18 February)

Event Time Altitude Azimuth Distance (km) Brightness Sun altitude
Rises 17:06:21 0° 214° (SW) 3,385 7.8 -10.3°
Reaches altitude 10° 17:08:49 10° 217° (SW) 2,451 7.0 -10.7°
Maximum altitude 17:14:25 69° 300° (WNW) 894 4.0 -11.6°
Drops below altitude 10° 17:20:02 10° 25° (NNE) 2,453 5.7 -12.5°
Enters shadow 17:21:12 - 26° (NNE) 2,897 6.1 -12.7°
